• In Lithuania
  • List of Countries
  • For 7 days
  • Water Temperature
  • Satellite Maps
  • Weather Map
  • Weather Widgets
  • user-avatar
    Login

    Hourly Weather Konjic

    Today, 17 December, Sunday

    Time Temperature Precipitation Wind Pressure Humidity
    00:00 +1°C° 0.2 mm 2 mps 691 mmHg 88%
    01:00 +1°C° 0.2 mm 2 mps 691 mmHg 88%
    02:00 +1°C° 0.4 mm 2 mps 691 mmHg 88%
    03:00 +1°C° 0.4 mm 2 mps 691 mmHg 88%
    04:00 -1°C° 0.4 mm 2 mps 691 mmHg 88%
    05:00 -1°C° 0.4 mm 3 mps 691 mmHg 88%
    06:00 -1°C° 0.4 mm 3 mps 692 mmHg 88%
    07:00 -1°C° 0.4 mm 3 mps 692 mmHg 88%
    08:00 -1°C° 0.5 mm 3 mps 692 mmHg 87%
    09:00 -1°C° 0.5 mm 3 mps 692 mmHg 86%
    10:00 -1°C° 0.5 mm 3 mps 693 mmHg 85%
    11:00 -1°C° 0.4 mm 3 mps 693 mmHg 84%
    12:00 -1°C° 0.4 mm 3 mps 693 mmHg 84%
    13:00 -1°C° 0.4 mm 3 mps 693 mmHg 83%
    14:00 -1°C° 0.3 mm 3 mps 694 mmHg 84%
    15:00 -2°C° 0.3 mm 3 mps 694 mmHg 85%
    16:00 -2°C° 0.3 mm 3 mps 694 mmHg 86%
    17:00 -2°C° 0.2 mm 3 mps 694 mmHg 86%
    18:00 -2°C° 0.2 mm 3 mps 695 mmHg 86%
    19:00 -4°C° 0.2 mm 3 mps 695 mmHg 86%
    20:00 -4°C° 0.2 mm 3 mps 696 mmHg 86%
    21:00 -4°C° 0.2 mm 3 mps 696 mmHg 86%
    22:00 -4°C° 0.2 mm 3 mps 696 mmHg 86%
    23:00 -4°C° 0.1 mm 3 mps 697 mmHg 86%

    Tomorrow, 18 December, Monday

    Time Temperature Precipitation Wind Pressure Humidity
    00:00 -4°C° 0.1 mm 3 mps 697 mmHg 86%
    01:00 -4°C° 0.1 mm 3 mps 697 mmHg 86%
    02:00 -4°C° 0.1 mm 3 mps 697 mmHg 86%
    03:00 -4°C° 0.1 mm 3 mps 697 mmHg 86%
    04:00 -4°C° 0.1 mm 3 mps 697 mmHg 86%
    05:00 -4°C° 0.1 mm 3 mps 697 mmHg 86%
    06:00 -4°C° 0.1 mm 3 mps 697 mmHg 85%
    07:00 -4°C° 0.1 mm 3 mps 697 mmHg 85%
    08:00 -4°C° 0.2 mm 3 mps 698 mmHg 83%
    09:00 -4°C° 0.2 mm 4 mps 698 mmHg 80%
    10:00 -3°C° 0.2 mm 4 mps 698 mmHg 78%
    11:00 -3°C° 0.1 mm 4 mps 698 mmHg 77%
    12:00 -3°C° 0.1 mm 4 mps 698 mmHg 76%
    13:00 -3°C° 0.1 mm 4 mps 698 mmHg 75%
    14:00 -2°C° 0.1 mm 3 mps 698 mmHg 78%
    15:00 -4°C° 0.1 mm 3 mps 698 mmHg 80%
    16:00 -4°C° 0.1 mm 3 mps 698 mmHg 83%
    17:00 -5°C° 0.1 mm 3 mps 698 mmHg 84%
    18:00 -5°C° 0.1 mm 3 mps 698 mmHg 85%
    19:00 -5°C° 0.1 mm 2 mps 698 mmHg 87%
    20:00 -5°C° 0.1 mm 2 mps 699 mmHg 87%
    21:00 -5°C° 0.1 mm 2 mps 699 mmHg 87%
    22:00 -5°C° 0.1 mm 2 mps 699 mmHg 87%
    23:00 -6°C° 0 mm 2 mps 699 mmHg 87%

    Day after tomorrow, 19 December, Tuesday

    Time Temperature Precipitation Wind Pressure Humidity
    00:00 -6°C° 0 mm 2 mps 700 mmHg 88%
    01:00 -6°C° 0 mm 2 mps 700 mmHg 88%
    02:00 -6°C° 0 mm 2 mps 700 mmHg 87%
    03:00 -6°C° 0 mm 2 mps 700 mmHg 87%
    04:00 -6°C° 0 mm 2 mps 700 mmHg 86%
    05:00 -6°C° 0 mm 2 mps 701 mmHg 86%
    06:00 -6°C° 0 mm 2 mps 701 mmHg 86%
    07:00 -6°C° 0 mm 2 mps 702 mmHg 86%
    08:00 -5°C° 0 mm 2 mps 702 mmHg 83%
    09:00 -5°C° 0 mm 3 mps 703 mmHg 79%
    10:00 -4°C° 0 mm 3 mps 703 mmHg 76%
    11:00 -4°C° 0 mm 3 mps 703 mmHg 74%
    12:00 -4°C° 0 mm 3 mps 703 mmHg 72%
    13:00 -2°C° 0 mm 3 mps 703 mmHg 70%
    14:00 -3°C° 0 mm 2 mps 703 mmHg 74%
    15:00 -4°C° 0 mm 2 mps 703 mmHg 78%
    16:00 -5°C° 0 mm 2 mps 703 mmHg 81%
    17:00 -5°C° 0 mm 2 mps 703 mmHg 84%
    18:00 -6°C° 0 mm 2 mps 704 mmHg 86%
    19:00 -7°C° 0 mm 2 mps 704 mmHg 88%
    20:00 -7°C° 0 mm 2 mps 704 mmHg 88%
    21:00 -7°C° 0 mm 1 mps 704 mmHg 88%
    22:00 -7°C° 0 mm 1 mps 704 mmHg 88%
    23:00 -7°C° 0 mm 1 mps 704 mmHg 87%

    20 December, Wednesday

    Time Temperature Precipitation Wind Pressure Humidity
    00:00 -7°C° 0 mm 1 mps 703 mmHg 87%
    01:00 -8°C° 0 mm 1 mps 703 mmHg 86%
    02:00 -8°C° 0 mm 1 mps 703 mmHg 85%
    03:00 -8°C° 0 mm 1 mps 702 mmHg 83%
    04:00 -8°C° 0 mm 1 mps 702 mmHg 82%
    05:00 -7°C° 0 mm 1 mps 702 mmHg 79%
    06:00 -7°C° 0 mm 1 mps 702 mmHg 77%
    07:00 -6°C° 0 mm 1 mps 702 mmHg 75%
    08:00 -4°C° 0 mm 1 mps 703 mmHg 71%
    09:00 -3°C° 0 mm 1 mps 703 mmHg 68%
    10:00 -2°C° 0 mm 1 mps 703 mmHg 64%
    11:00 -1°C° 0 mm 1 mps 703 mmHg 62%
    12:00 0°C° 0 mm 1 mps 703 mmHg 60%
    13:00 +1°C° 0 mm 1 mps 703 mmHg 59%
    14:00 0°C° 0 mm 1 mps 703 mmHg 64%
    15:00 -2°C° 0 mm 1 mps 703 mmHg 70%
    16:00 -3°C° 0 mm 1 mps 703 mmHg 75%
    17:00 -3°C° 0 mm 1 mps 703 mmHg 77%
    18:00 -4°C° 0 mm 1 mps 703 mmHg 79%
    19:00 -6°C° 0 mm 1 mps 704 mmHg 81%
    20:00 -6°C° 0 mm 1 mps 704 mmHg 82%
    21:00 -6°C° 0 mm 1 mps 704 mmHg 82%
    22:00 -6°C° 0 mm 1 mps 704 mmHg 82%
    23:00 -6°C° 0 mm 1 mps 704 mmHg 83%

    21 December, Thursday

    Time Temperature Precipitation Wind Pressure Humidity
    00:00 -6°C° 0 mm 1 mps 705 mmHg 83%
    01:00 -6°C° 0 mm 1 mps 705 mmHg 83%
    02:00 -7°C° 0 mm 1 mps 705 mmHg 84%
    03:00 -7°C° 0 mm 1 mps 704 mmHg 84%
    04:00 -7°C° 0 mm 1 mps 704 mmHg 84%
    05:00 -7°C° 0 mm 1 mps 704 mmHg 84%
    06:00 -7°C° 0 mm 1 mps 705 mmHg 84%
    07:00 -7°C° 0 mm 1 mps 705 mmHg 83%
    08:00 -4°C° 0 mm 1 mps 705 mmHg 79%
    09:00 -2°C° 0 mm 1 mps 705 mmHg 74%
    10:00 0°C° 0 mm 1 mps 706 mmHg 70%
    11:00 +1°C° 0 mm 1 mps 705 mmHg 67%
    12:00 +2°C° 0 mm 1 mps 705 mmHg 64%
    13:00 +3°C° 0 mm 1 mps 705 mmHg 61%
    14:00 +2°C° 0 mm 1 mps 705 mmHg 67%
    15:00 +2°C° 0 mm 1 mps 704 mmHg 72%
    16:00 +1°C° 0 mm 1 mps 704 mmHg 77%
    17:00 +1°C° 0.1 mm 1 mps 704 mmHg 79%
    18:00 +1°C° 0.1 mm 1 mps 704 mmHg 80%
    19:00 +1°C° 0.1 mm 1 mps 704 mmHg 82%
    20:00 +1°C° 0.1 mm 1 mps 704 mmHg 83%
    21:00 +1°C° 0.1 mm 1 mps 704 mmHg 85%
    22:00 +2°C° 0.1 mm 1 mps 705 mmHg 86%
    23:00 +2°C° 0.1 mm 1 mps 704 mmHg 87%

    22 December, Friday

    Time Temperature Precipitation Wind Pressure Humidity
    00:00 +2°C° 0.1 mm 1 mps 704 mmHg 88%
    01:00 +3°C° 0.1 mm 1 mps 704 mmHg 89%
    02:00 +3°C° 0 mm 1 mps 704 mmHg 89%
    03:00 +3°C° 0 mm 1 mps 703 mmHg 89%
    04:00 +3°C° 0 mm 1 mps 703 mmHg 90%
    05:00 +3°C° 0 mm 1 mps 703 mmHg 90%
    06:00 +3°C° 0 mm 1 mps 703 mmHg 89%
    07:00 +3°C° 0 mm 1 mps 702 mmHg 89%
    08:00 +4°C° 0 mm 1 mps 702 mmHg 89%
    09:00 +5°C° 0 mm 1 mps 702 mmHg 89%
    10:00 +6°C° 0 mm 1 mps 702 mmHg 88%
    11:00 +6°C° 0.1 mm 1 mps 702 mmHg 89%
    12:00 +5°C° 0.1 mm 2 mps 701 mmHg 89%
    13:00 +5°C° 0.1 mm 2 mps 701 mmHg 90%
    14:00 +5°C° 0.5 mm 1 mps 700 mmHg 91%
    15:00 +4°C° 0.5 mm 1 mps 700 mmHg 93%
    16:00 +4°C° 0.5 mm 1 mps 700 mmHg 95%
    17:00 +3°C° 1.3 mm 1 mps 700 mmHg 95%
    18:00 +3°C° 1.3 mm 1 mps 700 mmHg 95%
    19:00 +3°C° 1.3 mm 1 mps 700 mmHg 96%
    20:00 +2°C° 1 mm 2 mps 701 mmHg 93%
    21:00 0°C° 1 mm 3 mps 701 mmHg 91%
    22:00 -2°C° 1 mm 4 mps 702 mmHg 88%
    23:00 -2°C° 0.1 mm 4 mps 702 mmHg 87%
    Show more